Cumberland, WV

11:37 PM EST on December 06, 2019 (GMT -0500)
Greater Cumberland Regional

Weather History for KCBE - October, 2019

Change the Weather History Date:

Tuesday, October 22, 2019

  Actual Average (WUND) Record (WUND)
Temperature  
Mean Temperature 55 °F -  
Max Temperature 59 °F - - (-1)
Min Temperature 51 °F - - (-1)
Degree Days  
Heating Degree Days 10    
Growing Degree Days 5 (Base 50)    
Moisture  
Dew Point 54 °F    
Average Humidity 90    
Maximum Humidity 99    
Minimum Humidity 76    
Precipitation  
Precipitation 0.69 in - - ()
Sea Level Pressure  
Sea Level Pressure 29.92 in    
Wind  
Wind Speed 2 mph ()    
Max Wind Speed 7 mph    
Max Gust Speed -    
Visibility 6.7 miles    
Events Fog , Rain    
Averages and records for this station are not official NWS values.
T = Trace of Precipitation, MM = Missing Value Source: Averaged Metar Reports

Daily Weather History Graph

Daily Weather History Graph

Search for Another Location

Airport or City:

Astronomy

Oct. 22, 2019 Rise Set
Actual Time 7:32 AM EDT 6:26 PM EDT
Civil Twilight 7:04 AM EDT 6:53 PM EDT
Nautical Twilight 6:33 AM EDT 7:24 PM EDT
Astronomical Twilight 6:02 AM EDT 7:56 PM EDT
Moon 12:41 AM EDT (10/22) 3:32 PM EDT (10/22)
Length of Visible Light 11h 48m
Length of Day
10h 53m
Last Quarter, 37% of the Moon is Illuminated
Oct 22
Last Quarter
Oct 27
New
Nov 4
First Quarter
Nov 12
Full
Nov 19
Last Quarter

Hourly Weather History & Observations

Time (EDT) Temp. Dew Point Humidity Pressure Visibility Wind Dir Wind Speed Gust Speed Precip Events Conditions
12:15 AM 59.2 °F 52.0 °F 77% 30.03 in 10.0 mi SW 4.6 mph - N/A   Overcast
12:35 AM 59.2 °F 51.8 °F 77% 30.02 in 10.0 mi South 4.6 mph - N/A   Overcast
12:55 AM 59.7 °F 52.0 °F 76% 30.02 in 10.0 mi SE 4.6 mph - N/A   Overcast
1:15 AM 59.7 °F 52.0 °F 76% 30.02 in 10.0 mi South 3.5 mph - N/A   Overcast
1:35 AM 59.2 °F 52.3 °F 78% 30.01 in 10.0 mi Calm Calm - N/A   Overcast
1:55 AM 59.4 °F 52.5 °F 78% 30.01 in 10.0 mi Calm Calm - N/A   Overcast
2:15 AM 59.7 °F 52.5 °F 77% 30.00 in 10.0 mi Calm Calm - N/A   Overcast
2:35 AM 59.7 °F 52.7 °F 78% 30.00 in 10.0 mi Calm Calm - N/A   Overcast
2:55 AM 59.5 °F 52.9 °F 79% 29.97 in 10.0 mi Calm Calm - N/A   Overcast
3:15 AM 59.7 °F 53.1 °F 79% 29.98 in 10.0 mi Calm Calm - N/A   Overcast
3:35 AM 59.7 °F 53.1 °F 79% 29.96 in 10.0 mi Calm Calm - N/A   Overcast
3:55 AM 59.7 °F 53.2 °F 79% 29.96 in 10.0 mi South 3.5 mph - N/A   Overcast
4:15 AM 59.7 °F 53.6 °F 80% 29.95 in 10.0 mi Calm Calm - N/A   Overcast
4:35 AM 59.9 °F 53.6 °F 80% 29.94 in 10.0 mi ESE 3.5 mph - N/A   Overcast
4:55 AM 59.7 °F 53.6 °F 80% 29.94 in 10.0 mi SSE 3.5 mph - N/A   Overcast
5:15 AM 59.5 °F 53.6 °F 81% 29.94 in 10.0 mi South 4.6 mph - N/A   Overcast
5:35 AM 59.7 °F 53.4 °F 80% 29.94 in 10.0 mi South 5.8 mph - N/A   Overcast
5:55 AM 59.2 °F 53.6 °F 82% 29.95 in 10.0 mi South 3.5 mph - N/A   Overcast
6:15 AM 59.2 °F 53.4 °F 81% 29.95 in 10.0 mi SSW 3.5 mph - N/A   Overcast
6:35 AM 58.8 °F 53.4 °F 82% 29.94 in 10.0 mi SE 4.6 mph - N/A   Overcast
6:55 AM 58.5 °F 53.1 °F 82% 29.94 in 10.0 mi SE 3.5 mph - N/A   Overcast
7:15 AM 57.9 °F 53.1 °F 84% 29.94 in 10.0 mi SSW 4.6 mph - N/A   Overcast
7:35 AM 57.7 °F 53.1 °F 84% 29.93 in 10.0 mi SE 4.6 mph - N/A   Overcast
7:55 AM 57.7 °F 53.2 °F 85% 29.93 in 10.0 mi SW 3.5 mph - N/A   Overcast
8:15 AM 57.9 °F 53.4 °F 85% 29.92 in 10.0 mi Calm Calm - N/A   Overcast
8:35 AM 58.1 °F 53.6 °F 85% 29.91 in 10.0 mi SSE 3.5 mph - N/A   Overcast
8:55 AM 58.3 °F 53.8 °F 85% 29.92 in 10.0 mi South 3.5 mph - N/A   Overcast
9:15 AM 58.5 °F 54.0 °F 85% 29.92 in 10.0 mi East 3.5 mph - N/A   Overcast
9:35 AM 58.5 °F 54.1 °F 86% 29.92 in 10.0 mi South 3.5 mph - N/A   Overcast
9:55 AM 58.6 °F 54.1 °F 85% 29.91 in 10.0 mi Calm Calm - N/A   Overcast
10:15 AM 59.0 °F 54.3 °F 84% 29.91 in 10.0 mi SW 3.5 mph - N/A   Overcast
10:35 AM 59.2 °F 54.5 °F 84% 29.90 in 10.0 mi SSE 3.5 mph - N/A   Overcast
10:55 AM 59.2 °F 54.5 °F 84% 29.88 in 10.0 mi SSE 4.6 mph - N/A   Overcast
11:15 AM 59.2 °F 54.5 °F 84% 29.89 in 10.0 mi SSW 3.5 mph - N/A   Overcast
11:35 AM 57.7 °F 55.4 °F 92% 29.88 in 2.5 mi Calm Calm - 0.05 in Rain Rain
11:55 AM 57.4 °F 56.1 °F 96% 29.87 in 2.0 mi Calm Calm - 0.14 in Rain Rain
12:15 PM 57.2 °F 56.1 °F 96% 29.88 in 2.5 mi West 6.9 mph - 0.06 in Rain Rain
12:35 PM 57.4 °F 56.3 °F 96% 29.87 in 3.0 mi WSW 4.6 mph - 0.12 in Rain Light Rain
12:55 PM 57.6 °F 56.5 °F 96% 29.88 in 2.5 mi SSE 3.5 mph - 0.18 in Rain Rain
1:15 PM 57.4 °F 56.5 °F 97% 29.87 in 1.8 mi Calm Calm - 0.09 in Rain Rain
1:35 PM 57.4 °F 56.8 °F 98% 29.86 in 2.0 mi Calm Calm - 0.16 in Rain Light Rain
1:55 PM 57.7 °F 57.0 °F 97% 29.87 in 2.5 mi Calm Calm - 0.20 in Rain Rain
2:15 PM 57.7 °F 56.8 °F 97% 29.87 in 2.0 mi Calm Calm - 0.05 in Rain Rain
2:35 PM 57.7 °F 57.0 °F 97% 29.88 in 4.0 mi Calm Calm - 0.11 in Rain Rain
2:55 PM 57.9 °F 57.2 °F 97% 29.87 in 1.5 mi Calm Calm - 0.15 in Rain Light Rain
3:15 PM 57.7 °F 56.8 °F 97% 29.86 in 7.0 mi Calm Calm - 0.01 in Rain Light Rain
3:35 PM 58.3 °F 57.0 °F 96% 29.83 in 10.0 mi Calm Calm - 0.02 in Rain Light Rain
3:55 PM 58.3 °F 57.2 °F 96% 29.82 in 10.0 mi Calm Calm - 0.02 in Rain Light Rain
4:15 PM 58.6 °F 57.2 °F 95% 29.83 in 10.0 mi SW 6.9 mph - N/A   Light Drizzle
4:35 PM 58.8 °F 57.7 °F 96% 29.82 in 10.0 mi Calm Calm - N/A Rain Light Rain
4:55 PM 58.8 °F 57.6 °F 96% 29.84 in 10.0 mi SSW 5.8 mph - N/A   Mostly Cloudy
5:15 PM 59.7 °F 57.7 °F 93% 29.85 in 10.0 mi South 3.5 mph - N/A   Scattered Clouds
5:35 PM 58.5 °F 57.2 °F 96% 29.86 in 10.0 mi Calm Calm - N/A   Mostly Cloudy
5:55 PM 59.2 °F 57.0 °F 93% 29.86 in 10.0 mi Calm Calm - N/A   Scattered Clouds
6:15 PM 57.7 °F 56.7 °F 96% 29.87 in 10.0 mi Calm Calm - N/A   Clear
6:35 PM 56.1 °F 55.6 °F 98% 29.88 in 1.8 mi Calm Calm - N/A   Scattered Clouds
6:55 PM 55.2 °F 54.9 °F 99% 29.89 in 2.0 mi SSW 3.5 mph - N/A   Clear
7:15 PM 54.0 °F 53.4 °F 98% 29.89 in 0.2 mi Calm Calm - N/A Fog Fog
7:35 PM 54.3 °F 54.0 °F 99% 29.89 in 0.5 mi Calm Calm - N/A Fog Fog
7:55 PM 53.2 °F 53.1 °F 99% 29.90 in 0.2 mi Calm Calm - N/A Fog Fog
8:35 PM 53.8 °F 53.6 °F 99% 29.90 in 0.2 mi Calm Calm - N/A Fog Fog
8:55 PM 54.3 °F 54.1 °F 99% 29.91 in 0.2 mi Calm Calm - N/A Fog Fog
9:15 PM 54.1 °F 54.0 °F 99% 29.91 in 0.2 mi Calm Calm - N/A Fog Fog
9:35 PM 54.1 °F 54.0 °F 99% 29.91 in 0.2 mi Calm Calm - N/A Fog Fog
9:55 PM 54.3 °F 54.1 °F 99% 29.92 in 0.2 mi Calm Calm - N/A Fog Fog
10:15 PM 54.1 °F 54.0 °F 99% 29.93 in 0.2 mi WSW 3.5 mph - N/A Fog Fog
10:35 PM 53.2 °F 53.1 °F 99% 29.93 in 1.2 mi West 5.8 mph - N/A   Overcast
10:55 PM 52.3 °F 52.2 °F 99% 29.93 in 1.2 mi Calm Calm - N/A   Overcast
11:15 PM 52.0 °F 51.8 °F 99% 29.93 in 0.2 mi Calm Calm - N/A Fog Fog
11:35 PM 51.6 °F 51.4 °F 99% 29.93 in 0.2 mi Calm Calm - N/A Fog Fog
11:55 PM 51.1 °F 50.9 °F 99% 29.93 in 0.2 mi Calm Calm - N/A Fog Fog